| time (UTC) | temp F | wind direction | speed MPH | gust MPH | rain 1hr in | rain 24hr in | rain mn in | humidity % | barometer mb |
| 20260507024016 | 81 | 311 | 3.0 | 10.0 | 0.00 | 0.00 | 0.00 | 48 | 1011.1 |
| 20260507023016 | 82 | 291 | 3.0 | 6.0 | 0.00 | 0.00 | 0.00 | 49 | 1011.0 |
| 20260507022057 | 82 | 305 | 3.0 | 6.0 | 0.00 | 0.00 | 0.00 | 49 | 1010.9 |
| 20260507021016 | 82 | 285 | 2.0 | 10.0 | 0.00 | 0.00 | 0.00 | 49 | 1010.9 |
| 20260507020016 | 83 | 309 | 4.0 | 12.0 | 0.00 | 0.00 | 0.00 | 48 | 1010.8 |
| 20260507015016 | 83 | 279 | 2.0 | 5.0 | 0.00 | 0.00 | 0.00 | 48 | 1010.6 |
| 20260507014036 | 84 | 303 | 3.0 | 8.0 | 0.00 | 0.00 | 0.00 | 47 | 1010.6 |
| 20260507013016 | 84 | 302 | 2.0 | 6.0 | 0.00 | 0.00 | 0.00 | 47 | 1010.5 |
| 20260507012017 | 84 | 292 | 3.0 | 8.0 | 0.00 | 0.00 | 0.00 | 47 | 1010.6 |
| 20260507011016 | 85 | 305 | 3.0 | 8.0 | 0.00 | 0.00 | 0.00 | 46 | 1010.3 |
| 20260507010016 | 86 | 290 | 2.0 | 8.0 | 0.00 | 0.00 | 0.00 | 45 | 1010.2 |
| 20260507005016 | 86 | 301 | 4.0 | 12.0 | 0.00 | 0.00 | 0.00 | 43 | 1010.0 |
| 20260507004016 | 87 | 289 | 3.0 | 12.0 | 0.00 | 0.00 | 0.00 | 44 | 1010.0 |
| 20260507003016 | 87 | 290 | 4.0 | 9.0 | 0.00 | 0.00 | 0.00 | 44 | 1009.8 |
| 20260507002016 | 87 | 270 | 5.0 | 12.0 | 0.00 | 0.00 | 0.00 | 44 | 1009.7 |
| 20260507001017 | 88 | 286 | 5.0 | 11.0 | 0.00 | 0.00 | 0.00 | 43 | 1009.6 |
| 20260507000016 | 88 | 284 | 5.0 | 13.0 | 0.00 | 0.00 | 0.00 | 42 | 1009.6 |
| 20260506235016 | 88 | 301 | 4.0 | 12.0 | 0.00 | 0.00 | 0.00 | 43 | 1009.6 |
| 20260506234016 | 89 | 284 | 4.0 | 14.0 | 0.00 | 0.00 | 0.00 | 42 | 1009.6 |
| 20260506233016 | 89 | 303 | 4.0 | 13.0 | 0.00 | 0.00 | 0.00 | 41 | 1009.6 |
| 20260506232016 | 90 | 292 | 5.0 | 12.0 | 0.00 | 0.00 | 0.00 | 41 | 1009.6 |
| 20260506231036 | 90 | 297 | 6.0 | 13.0 | 0.00 | 0.00 | 0.00 | 39 | 1009.6 |
| 20260506230036 | 91 | 319 | 6.0 | 15.0 | 0.00 | 0.00 | 0.00 | 37 | 1009.5 |
| 20260506225016 | 91 | 299 | 4.0 | 10.0 | 0.00 | 0.00 | 0.00 | 38 | 1009.5 |
| 20260506224016 | 91 | 285 | 5.0 | 13.0 | 0.00 | 0.00 | 0.00 | 37 | 1009.6 |
| 20260506223016 | 91 | 300 | 5.0 | 13.0 | 0.00 | 0.00 | 0.00 | 36 | 1009.6 |
| 20260506222016 | 92 | 309 | 7.0 | 15.0 | 0.00 | 0.00 | 0.00 | 35 | 1009.7 |
| 20260506221016 | 93 | 303 | 6.0 | 15.0 | 0.00 | 0.00 | 0.00 | 34 | 1009.7 |
| 20260506220016 | 94 | 293 | 6.0 | 14.0 | 0.00 | 0.00 | 0.00 | 32 | 1009.6 |
| 20260506215016 | 97 | 266 | 6.0 | 14.0 | 0.00 | 0.00 | 0.00 | 29 | 1009.5 |
| 20260506214016 | 97 | 281 | 2.0 | 9.0 | 0.00 | 0.00 | 0.00 | 27 | 1009.5 |
| 20260506213016 | 97 | 310 | 4.0 | 12.0 | 0.00 | 0.00 | 0.00 | 28 | 1009.5 |
| 20260506212016 | 97 | 307 | 5.0 | 17.0 | 0.00 | 0.00 | 0.00 | 27 | 1009.7 |
| 20260506211016 | 98 | 327 | 5.0 | 14.0 | 0.00 | 0.00 | 0.00 | 26 | 1009.7 |
| 20260506210016 | 98 | 343 | 4.0 | 9.0 | 0.00 | 0.00 | 0.00 | 26 | 1009.8 |
| 20260506205016 | 99 | 303 | 4.0 | 9.0 | 0.00 | 0.00 | 0.00 | 25 | 1010.0 |
| 20260506204016 | 99 | 289 | 4.0 | 10.0 | 0.00 | 0.00 | 0.00 | 25 | 1010.1 |
| 20260506203016 | 99 | 239 | 2.0 | 6.0 | 0.00 | 0.00 | 0.00 | 24 | 1010.2 |
| 20260506202036 | 99 | 303 | 4.0 | 10.0 | 0.00 | 0.00 | 0.00 | 23 | 1010.3 |
| 20260506201016 | 99 | 282 | 4.0 | 9.0 | 0.00 | 0.00 | 0.00 | 24 | 1010.4 |
| 20260506200016 | 99 | 288 | 2.0 | 8.0 | 0.00 | 0.00 | 0.00 | 24 | 1010.5 |
| 20260506195016 | 98 | 307 | 2.0 | 5.0 | 0.00 | 0.00 | 0.00 | 27 | 1010.7 |
| 20260506194016 | 97 | 181 | 3.0 | 10.0 | 0.00 | 0.00 | 0.00 | 27 | 1010.8 |
| 20260506193036 | 97 | 300 | 3.0 | 10.0 | 0.00 | 0.00 | 0.00 | 28 | 1011.1 |
| 20260506192016 | 96 | 323 | 2.0 | 7.0 | 0.00 | 0.00 | 0.00 | 30 | 1011.3 |
| 20260506191016 | 96 | 260 | 3.0 | 10.0 | 0.00 | 0.00 | 0.00 | 30 | 1011.4 |
| 20260506190018 | 95 | 285 | 4.0 | 10.0 | 0.00 | 0.00 | 0.00 | 31 | 1011.5 |
| 20260506185016 | 96 | 236 | 3.0 | 6.0 | 0.00 | 0.00 | 0.00 | 32 | 1011.7 |
| 20260506184016 | 94 | 176 | 1.0 | 7.0 | 0.00 | 0.00 | 0.00 | 34 | 1011.8 |
| 20260506183057 | 93 | 355 | 4.0 | 11.0 | 0.00 | 0.00 | 0.00 | 36 | 1011.9 |
| 20260506182016 | 93 | 321 | 3.0 | 8.0 | 0.00 | 0.00 | 0.00 | 36 | 1011.9 |
| 20260506181036 | 92 | 303 | 3.0 | 10.0 | 0.00 | 0.00 | 0.00 | 38 | 1012.0 |
| 20260506180016 | 91 | 335 | 6.0 | 10.0 | 0.00 | 0.00 | 0.00 | 38 | 1012.1 |
| 20260506175016 | 91 | 293 | 3.0 | 10.0 | 0.00 | 0.00 | 0.00 | 39 | 1012.1 |
| 20260506174016 | 90 | 336 | 4.0 | 10.0 | 0.00 | 0.00 | 0.00 | 39 | 1012.3 |
| 20260506173016 | 91 | 330 | 4.0 | 9.0 | 0.00 | 0.00 | 0.00 | 37 | 1012.3 |
| 20260506172016 | 91 | 325 | 2.0 | 5.0 | 0.00 | 0.00 | 0.00 | 40 | 1012.3 |
| 20260506171017 | 91 | 310 | 2.0 | 7.0 | 0.00 | 0.00 | 0.00 | 39 | 1012.3 |
| 20260506170016 | 91 | 70 | 2.0 | 3.0 | 0.00 | 0.00 | 0.00 | 40 | 1012.2 |
| 20260506165016 | 89 | 15 | 2.0 | 4.0 | 0.00 | 0.00 | 0.00 | 42 | 1012.2 |
| 20260506164018 | 89 | 284 | 2.0 | 4.0 | 0.00 | 0.00 | 0.00 | 45 | 1012.2 |
| 20260506163057 | 88 | 143 | 1.0 | 2.0 | 0.00 | 0.00 | 0.00 | 46 | 1012.1 |
| 20260506162016 | 88 | 129 | 1.0 | 3.0 | 0.00 | 0.00 | 0.00 | 47 | 1012.1 |
| 20260506161036 | 86 | 166 | 2.0 | 5.0 | 0.00 | 0.00 | 0.00 | 50 | 1012.1 |
| 20260506160056 | 86 | 103 | 2.0 | 4.0 | 0.00 | 0.00 | 0.00 | 51 | 1012.0 |
| 20260506155036 | 85 | 167 | 1.0 | 3.0 | 0.00 | 0.00 | 0.00 | 52 | 1012.1 |
| 20260506154016 | 84 | 204 | 1.0 | 3.0 | 0.00 | 0.00 | 0.00 | 55 | 1012.1 |
| 20260506153016 | 83 | 191 | 2.0 | 3.0 | 0.00 | 0.00 | 0.00 | 56 | 1012.2 |
| 20260506152016 | 82 | 211 | 1.0 | 3.0 | 0.00 | 0.00 | 0.00 | 59 | 1012.1 |
| 20260506151016 | 81 | 181 | 1.0 | 3.0 | 0.00 | 0.00 | 0.00 | 60 | 1012.1 |
| 20260506150016 | 80 | 147 | 2.0 | 3.0 | 0.00 | 0.00 | 0.00 | 61 | 1012.1 |
| 20260506145016 | 79 | 214 | 1.0 | 3.0 | 0.00 | 0.00 | 0.00 | 64 | 1012.1 |
| 20260506144016 | 77 | 147 | 1.0 | 2.0 | 0.00 | 0.00 | 0.00 | 66 | 1012.0 |
| 20260506143016 | 76 | 185 | 1.0 | 2.0 | 0.00 | 0.00 | 0.00 | 68 | 1012.0 |
| 20260506142016 | 75 | 175 | 2.0 | 4.0 | 0.00 | 0.00 | 0.00 | 69 | 1012.0 |
| 20260506141016 | 76 | 178 | 1.0 | 2.0 | 0.00 | 0.00 | 0.00 | 68 | 1012.1 |
| 20260506140016 | 74 | 229 | 1.0 | 2.0 | 0.00 | 0.00 | 0.00 | 71 | 1012.0 |
| 20260506135016 | 72 | 255 | 1.0 | 3.0 | 0.00 | 0.00 | 0.00 | 74 | 1011.9 |
| 20260506134017 | 71 | 312 | 2.0 | 4.0 | 0.00 | 0.00 | 0.00 | 75 | 1011.7 |
| 20260506133036 | 71 | 293 | 1.0 | 3.0 | 0.00 | 0.00 | 0.00 | 76 | 1011.6 |
| 20260506132017 | 70 | 297 | 2.0 | 4.0 | 0.00 | 0.00 | 0.00 | 78 | 1011.4 |
| 20260506131016 | 69 | 293 | 1.0 | 2.0 | 0.00 | 0.00 | 0.00 | 80 | 1011.2 |
| 20260506130016 | 69 | 293 | 1.0 | 2.0 | 0.00 | 0.00 | 0.00 | 80 | 1011.0 |
| 20260506125017 | 68 | 294 | 1.0 | 2.0 | 0.00 | 0.00 | 0.00 | 79 | 1010.9 |
| 20260506124016 | 69 | 316 | 2.0 | 3.0 | 0.00 | 0.00 | 0.00 | 77 | 1010.9 |
| 20260506123036 | 69 | 293 | 1.0 | 3.0 | 0.00 | 0.00 | 0.00 | 73 | 1010.9 |
| 20260506122036 | 70 | 297 | 2.0 | 6.0 | 0.00 | 0.00 | 0.00 | 72 | 1010.9 |
| 20260506121016 | 70 | 103 | 1.0 | 2.0 | 0.00 | 0.00 | 0.00 | 69 | 1010.7 |
| 20260506120016 | 70 | 102 | 2.0 | 3.0 | 0.00 | 0.00 | 0.00 | 70 | 1010.7 |
| 20260506115016 | 70 | 91 | 2.0 | 3.0 | 0.00 | 0.00 | 0.00 | 70 | 1010.7 |
| 20260506114016 | 70 | 70 | 0.0 | 2.0 | 0.00 | 0.00 | 0.00 | 72 | 1010.6 |
| 20260506113016 | 70 | 70 | 1.0 | 2.0 | 0.00 | 0.00 | 0.00 | 73 | 1010.6 |
| 20260506112016 | 70 | 70 | 1.0 | 2.0 | 0.00 | 0.00 | 0.00 | 72 | 1010.6 |
| 20260506111016 | 71 | 70 | 0.0 | 2.0 | 0.00 | 0.00 | 0.00 | 74 | 1010.5 |
| 20260506110016 | 71 | 70 | 0.0 | 2.0 | 0.00 | 0.00 | 0.00 | 70 | 1010.6 |
| 20260506105016 | 71 | 86 | 0.0 | 2.0 | 0.00 | 0.00 | 0.00 | 69 | 1010.6 |
| 20260506104016 | 71 | 86 | 0.0 | 2.0 | 0.00 | 0.00 | 0.00 | 69 | 1010.5 |
| 20260506103016 | 71 | 86 | 1.0 | 2.0 | 0.00 | 0.00 | 0.00 | 69 | 1010.5 |
| 20260506102016 | 71 | 57 | 1.0 | 4.0 | 0.00 | 0.00 | 0.00 | 69 | 1010.4 |
| 20260506101036 | 71 | 80 | 2.0 | 3.0 | 0.00 | 0.00 | 0.00 | 70 | 1010.4 |
| 20260506100016 | 72 | 77 | 1.0 | 3.0 | 0.00 | 0.00 | 0.00 | 72 | 1010.4 |
| 20260506095056 | 71 | 196 | 1.0 | 2.0 | 0.00 | 0.00 | 0.00 | 73 | 1010.4 |
| 20260506094036 | 71 | 253 | 1.0 | 2.0 | 0.00 | 0.00 | 0.00 | 73 | 1010.5 |
| 20260506093016 | 71 | 253 | 1.0 | 2.0 | 0.00 | 0.00 | 0.00 | 73 | 1010.4 |
| 20260506092016 | 71 | 251 | 1.0 | 2.0 | 0.00 | 0.00 | 0.00 | 73 | 1010.4 |
| 20260506091016 | 72 | 178 | 0.0 | 2.0 | 0.00 | 0.00 | 0.00 | 73 | 1010.3 |
| 20260506090016 | 72 | 211 | 1.0 | 2.0 | 0.00 | 0.00 | 0.00 | 78 | 1010.5 |
| 20260506085016 | 72 | 225 | 1.0 | 2.0 | 0.00 | 0.00 | 0.00 | 80 | 1010.6 |
| 20260506084016 | 72 | 225 | 1.0 | 2.0 | 0.00 | 0.00 | 0.00 | 79 | 1010.6 |
| 20260506083016 | 72 | 225 | 0.0 | 2.0 | 0.00 | 0.00 | 0.00 | 79 | 1010.6 |
| 20260506082016 | 73 | 225 | 0.0 | 2.0 | 0.00 | 0.00 | 0.00 | 78 | 1010.6 |
| 20260506081017 | 73 | 219 | 0.0 | 2.0 | 0.00 | 0.00 | 0.00 | 77 | 1010.7 |
| 20260506073017 | 73 | 208 | 0.0 | 2.0 | 0.00 | 0.00 | 0.00 | 77 | 1010.9 |
| 20260506072016 | 73 | 208 | 0.0 | 2.0 | 0.00 | 0.00 | 0.00 | 76 | 1011.1 |
| 20260506071036 | 74 | 208 | 0.0 | 2.0 | 0.00 | 0.00 | 0.00 | 76 | 1011.1 |
| 20260506062036 | 74 | 257 | 1.0 | 2.0 | 0.00 | 0.00 | 0.00 | 72 | 1011.2 |
| 20260506061016 | 75 | 279 | 0.0 | 2.0 | 0.00 | 0.00 | 0.00 | 71 | 1011.2 |
| 20260506051016 | 76 | 286 | 1.0 | 2.0 | 0.00 | 0.00 | 0.00 | 68 | 1011.1 |
| 20260506045016 | 77 | 294 | 1.0 | 3.0 | 0.00 | 0.00 | 0.00 | 67 | 1011.1 |
| 20260506044016 | 77 | 296 | 1.0 | 3.0 | 0.00 | 0.00 | 0.00 | 67 | 1011.2 |
| 20260506043036 | 77 | 290 | 1.0 | 3.0 | 0.00 | 0.00 | 0.00 | 66 | 1011.1 |
| 20260506042016 | 77 | 283 | 1.0 | 3.0 | 0.00 | 0.00 | 0.00 | 65 | 1010.9 |
| 20260506041016 | 77 | 265 | 1.0 | 2.0 | 0.00 | 0.00 | 0.00 | 64 | 1010.8 |
| 20260506040016 | 78 | 283 | 1.0 | 2.0 | 0.00 | 0.00 | 0.00 | 64 | 1010.7 |
| 20260506035016 | 78 | 295 | 2.0 | 3.0 | 0.00 | 0.00 | 0.00 | 63 | 1010.7 |
| 20260506034016 | 78 | 294 | 2.0 | 7.0 | 0.00 | 0.00 | 0.00 | 62 | 1010.7 |
| 20260506033036 | 78 | 298 | 2.0 | 5.0 | 0.00 | 0.00 | 0.00 | 61 | 1010.8 |
| 20260506032016 | 79 | 295 | 2.0 | 6.0 | 0.00 | 0.00 | 0.00 | 59 | 1010.7 |
| 20260506031016 | 79 | 300 | 2.0 | 5.0 | 0.00 | 0.00 | 0.00 | 58 | 1010.7 |
| 20260506030016 | 79 | 303 | 2.0 | 4.0 | 0.00 | 0.00 | 0.00 | 56 | 1010.5 |
| 20260506025016 | 80 | 317 | 2.0 | 9.0 | 0.00 | 0.00 | 0.00 | 56 | 1010.4 |